Tucumcari, NM

12:08 PM MDT on March 29, 2017 (GMT -0600)
Tucumcari Municipal

Weather History for KTCC - June, 2013

Change the Weather History Date:

Friday, June 21, 2013

  Actual Average Record
Temperature  
Mean Temperature 86 °F -  
Max Temperature 100 °F 93 °F 104 °F (1981)
Min Temperature 71 °F 62 °F 50 °F (1905)
Cooling Degree Days 20    
Growing Degree Days 36 (Base 50)    
Moisture  
Dew Point 50 °F    
Average Humidity 35    
Maximum Humidity 54    
Minimum Humidity 12    
Precipitation  
Precipitation 0.00 in - - ()
Sea Level Pressure  
Sea Level Pressure 29.74 in    
Wind  
Wind Speed 19 mph (SSW)    
Max Wind Speed 34 mph    
Max Gust Speed 47 mph    
Visibility 10 miles    
Events      
Averages and records for this station are not official NWS values.
T = Trace of Precipitation, MM = Missing Value Source: NWS Daily Summary

Daily Weather History Graph

Daily Weather History Graph

Search for Another Location

Airport or City:

Trip Planner

Search our weather history database for the weather conditions in past years. The results will help you decide how hot, cold, wet, or windy it might be!

Date:

Astronomy

Jun. 21, 2013 Rise Set
Actual Time 5:40 AM MDT 8:12 PM MDT
Civil Twilight 5:10 AM MDT 8:42 PM MDT
Nautical Twilight 4:33 AM MDT 9:18 PM MDT
Astronomical Twilight 3:52 AM MDT 9:59 PM MDT
Moon 6:27 PM MDT (6/21) 3:54 AM MDT (6/21)
Length of Visible Light 15h 31m
Length of Day
14h 31m
Waxing Gibbous, 95% of the Moon is Illuminated
Jun 21
Waxing Gibbous
Jun 23
Full
Jun 29
Last Quarter
Jul 8
New
Jul 15
First Quarter

Hourly Weather History & Observations

Time (MDT) Temp. Heat Index Dew Point Humidity Pressure Visibility Wind Dir Wind Speed Gust Speed Precip Events Conditions
12:53 AM 75.9 °F - 53.1 °F 45% 29.78 in 10.0 mi South 23.0 mph 28.8 mph N/A   Clear
1:53 AM 75.0 °F - 52.0 °F 44% 29.75 in 10.0 mi SSW 20.7 mph 31.1 mph N/A   Clear
2:53 AM 73.9 °F - 53.1 °F 48% 29.78 in 10.0 mi SW 19.6 mph 27.6 mph N/A   Clear
3:53 AM 73.0 °F - 53.1 °F 49% 29.79 in 10.0 mi Calm Calm - N/A   Clear
4:53 AM 73.0 °F - 52.0 °F 48% 29.78 in 10.0 mi SSW 13.8 mph - N/A   Clear
5:53 AM 71.1 °F - 53.1 °F 53% 29.79 in 10.0 mi SSW 12.7 mph - N/A   Clear
6:53 AM 72.0 °F - 53.1 °F 51% 29.82 in 10.0 mi South 9.2 mph - N/A   Clear
7:53 AM 75.0 °F - 53.1 °F 46% 29.81 in 10.0 mi SSW 20.7 mph - N/A   Clear
8:53 AM 80.1 °F 79.9 °F 53.1 °F 39% 29.81 in 10.0 mi SSW 23.0 mph - N/A   Clear
9:53 AM 84.0 °F 82.5 °F 53.1 °F 34% 29.80 in 10.0 mi SSW 21.9 mph - N/A   Clear
10:53 AM 88.0 °F - 51.1 °F 28% 29.79 in 10.0 mi South 17.3 mph 24.2 mph N/A   Clear
11:53 AM 90.0 °F - 48.9 °F 24% 29.78 in 10.0 mi South 12.7 mph 21.9 mph N/A   Clear
12:53 PM 93.9 °F - 46.9 °F 20% 29.74 in 10.0 mi South 11.5 mph 20.7 mph N/A   Clear
1:53 PM 97.0 °F - 39.9 °F 14% 29.70 in 10.0 mi SSW 10.4 mph 24.2 mph N/A   Clear
2:53 PM 100.0 °F - 37.9 °F 12% 29.68 in 10.0 mi SW 12.7 mph 27.6 mph N/A   Clear
3:53 PM 99.0 °F - 39.9 °F 13% 29.66 in 10.0 mi SSW 19.6 mph 26.5 mph N/A   Clear
4:53 PM 99.0 °F - 41.0 °F 14% 29.65 in 10.0 mi SSW 20.7 mph 28.8 mph N/A   Clear
5:53 PM 89.1 °F - 45.0 °F 22% 29.66 in 10.0 mi South 26.5 mph 38.0 mph N/A   Clear
6:53 PM 84.9 °F - 51.1 °F 31% 29.68 in 10.0 mi SSE 28.8 mph 41.4 mph N/A   Clear
7:53 PM 88.0 °F - 50.0 °F 27% 29.66 in 10.0 mi South 19.6 mph - N/A   Clear
8:53 PM 84.0 °F 82.6 °F 54.0 °F 35% 29.67 in 10.0 mi South 23.0 mph 29.9 mph N/A   Clear
9:53 PM 81.0 °F 80.8 °F 55.9 °F 42% 29.70 in 10.0 mi South 29.9 mph 42.6 mph N/A   Clear
10:53 PM 79.0 °F - 57.0 °F 47% 29.71 in 7.0 mi South 32.2 mph 47.2 mph N/A   Clear
11:53 PM 77.0 °F - 59.0 °F 54% 29.71 in 6.0 mi South 34.5 mph 46.0 mph N/A   Haze